DAL1051 KMSP-KSLC

Flight info

Callsign DAL1051
Flight time N/A
Altitude 34000
Route LEINY DCT ABR J158 DDY
Aircraft A320/M-DGVW/C

Departure

Time N/A
Airport Minneapolis–Saint Paul International Airport / Wold–Chamberlain Field (KMSP)

Arrival

Time 2026-05-08 03:55
Airport Salt Lake City International Airport (KSLC)
Time Latitude Longitude Altitude Speed Heading
2026-05-08 03:24 41.91611 -109.81548 33893 ft 454 kts 256°
2026-05-08 03:25 41.89097 -109.89336 33902 ft 455 kts 256°
2026-05-08 03:25 41.86581 -109.97132 33905 ft 456 kts 256°
2026-05-08 03:26 41.84066 -110.04941 33894 ft 456 kts 256°
2026-05-08 03:26 41.81563 -110.12749 33930 ft 456 kts 256°
2026-05-08 03:27 41.78144 -110.20038 33928 ft 482 kts 233°
2026-05-08 03:27 41.73325 -110.26327 33954 ft 484 kts 232°
2026-05-08 03:28 41.68495 -110.32607 33964 ft 478 kts 238°
2026-05-08 03:28 41.66647 -110.36324 33857 ft 458 kts 254°
2026-05-08 03:28 41.65562 -110.40123 33338 ft 449 kts 261°
2026-05-08 03:28 41.64592 -110.44103 32819 ft 450 kts 261°
2026-05-08 03:29 41.63642 -110.48089 32258 ft 451 kts 261°
2026-05-08 03:29 41.62718 -110.52106 31744 ft 453 kts 261°
2026-05-08 03:29 41.61676 -110.56112 31243 ft 464 kts 252°
2026-05-08 03:29 41.59895 -110.59796 30741 ft 483 kts 236°
2026-05-08 03:30 41.55031 -110.66202 29645 ft 495 kts 230°
2026-05-08 03:30 41.50034 -110.72538 28540 ft 496 kts 230°
2026-05-08 03:31 41.45009 -110.78873 27568 ft 497 kts 229°
2026-05-08 03:31 41.40042 -110.85188 26569 ft 489 kts 229°
2026-05-08 03:32 41.37813 -110.88537 26091 ft 476 kts 241°
2026-05-08 03:32 41.36272 -110.92355 25625 ft 461 kts 255°
2026-05-08 03:32 41.35472 -110.96416 25173 ft 448 kts 267°
2026-05-08 03:32 41.35391 -111.00499 24711 ft 438 kts 279°
2026-05-08 03:33 41.35986 -111.04424 24300 ft 430 kts 289°
2026-05-08 03:33 41.36797 -111.08249 24124 ft 430 kts 289°
2026-05-08 03:33 41.37597 -111.12094 24134 ft 434 kts 289°
2026-05-08 03:33 41.38404 -111.16020 24105 ft 444 kts 288°
2026-05-08 03:34 41.39218 -111.20010 24102 ft 451 kts 288°
2026-05-08 03:34 41.40037 -111.24059 24083 ft 453 kts 288°
2026-05-08 03:34 41.40854 -111.28116 24065 ft 454 kts 288°
2026-05-08 03:34 41.41670 -111.32175 24048 ft 454 kts 288°
2026-05-08 03:35 41.42485 -111.36230 24022 ft 453 kts 288°
2026-05-08 03:35 41.43303 -111.40289 24002 ft 452 kts 288°
2026-05-08 03:35 41.44122 -111.44332 23978 ft 452 kts 288°
2026-05-08 03:36 41.45683 -111.52044 23969 ft 452 kts 288°
2026-05-08 03:36 41.46493 -111.56089 23971 ft 452 kts 288°
2026-05-08 03:36 41.47301 -111.60146 23972 ft 453 kts 288°
2026-05-08 03:36 41.48111 -111.64203 23746 ft 453 kts 288°
2026-05-08 03:37 41.48919 -111.68246 23263 ft 450 kts 288°
2026-05-08 03:37 41.49715 -111.72245 22739 ft 446 kts 288°
2026-05-08 03:37 41.50507 -111.76233 22221 ft 442 kts 288°
2026-05-08 03:37 41.51291 -111.80178 21699 ft 438 kts 288°
2026-05-08 03:38 41.52068 -111.84090 21209 ft 433 kts 287°
2026-05-08 03:38 41.52834 -111.87955 20717 ft 429 kts 287°
2026-05-08 03:38 41.53591 -111.91802 20247 ft 426 kts 287°
2026-05-08 03:38 41.54297 -111.95623 19765 ft 423 kts 282°
2026-05-08 03:39 41.54270 -111.99541 19297 ft 428 kts 261°
2026-05-08 03:39 41.53115 -112.03149 19040 ft 437 kts 239°
2026-05-08 03:39 41.50940 -112.06019 18997 ft 448 kts 217°
2026-05-08 03:39 41.48078 -112.07758 18945 ft 460 kts 200°
2026-05-08 03:40 41.44912 -112.08535 18946 ft 466 kts 188°
2026-05-08 03:40 41.41659 -112.08746 18972 ft 469 kts 184°
2026-05-08 03:40 41.38399 -112.08790 18976 ft 469 kts 184°
2026-05-08 03:40 41.35138 -112.08939 18989 ft 468 kts 186°
2026-05-08 03:41 41.31897 -112.09292 18613 ft 465 kts 189°
2026-05-08 03:41 41.28709 -112.09854 18118 ft 460 kts 192°
2026-05-08 03:41 41.25562 -112.10487 17575 ft 457 kts 188°
2026-05-08 03:41 41.22390 -112.10330 17025 ft 456 kts 176°
2026-05-08 03:42 41.19255 -112.09801 16495 ft 452 kts 176°
2026-05-08 03:42 41.16330 -112.09285 16001 ft 447 kts 176°
2026-05-08 03:42 41.13260 -112.08735 15486 ft 442 kts 176°
2026-05-08 03:42 41.10238 -112.08183 14999 ft 436 kts 176°
2026-05-08 03:43 41.07248 -112.07629 14502 ft 431 kts 176°
2026-05-08 03:43 41.04297 -112.07075 13979 ft 426 kts 176°
2026-05-08 03:43 41.01387 -112.06523 13448 ft 419 kts 175°
2026-05-08 03:43 40.98515 -112.06105 12888 ft 410 kts 180°
2026-05-08 03:44 40.95694 -112.05896 12358 ft 403 kts 180°
2026-05-08 03:44 40.92923 -112.05717 11822 ft 396 kts 180°
2026-05-08 03:44 40.90193 -112.05554 11323 ft 389 kts 180°
2026-05-08 03:44 40.87512 -112.05407 10827 ft 383 kts 180°
2026-05-08 03:45 40.84858 -112.05279 10329 ft 377 kts 180°
2026-05-08 03:45 40.82261 -112.05163 9833 ft 372 kts 180°
2026-05-08 03:45 40.79694 -112.05063 9345 ft 366 kts 181°
2026-05-08 03:45 40.77208 -112.04976 9215 ft 349 kts 181°
2026-05-08 03:46 40.74836 -112.04890 9141 ft 333 kts 180°
2026-05-08 03:46 40.72572 -112.04805 9080 ft 318 kts 180°
2026-05-08 03:46 40.70407 -112.04723 9012 ft 304 kts 180°
2026-05-08 03:46 40.68354 -112.04642 9012 ft 288 kts 180°
2026-05-08 03:47 40.66404 -112.04561 9010 ft 272 kts 180°
2026-05-08 03:47 40.64547 -112.04474 9007 ft 264 kts 181°
2026-05-08 03:47 40.62715 -112.04386 9007 ft 263 kts 181°
2026-05-08 03:47 40.60894 -112.04302 9007 ft 262 kts 181°
2026-05-08 03:48 40.59068 -112.04215 9005 ft 263 kts 180°
2026-05-08 03:48 40.57234 -112.04127 9004 ft 263 kts 181°
2026-05-08 03:48 40.55410 -112.04041 9009 ft 263 kts 180°
2026-05-08 03:48 40.53614 -112.03573 9006 ft 267 kts 155°
2026-05-08 03:49 40.52178 -112.02091 8860 ft 262 kts 126°
2026-05-08 03:49 40.51469 -111.99939 8562 ft 257 kts 95°
2026-05-08 03:49 40.51656 -111.97671 8269 ft 249 kts 64°
2026-05-08 03:49 40.52658 -111.95904 7979 ft 239 kts 33°
2026-05-08 03:50 40.54156 -111.95125 7693 ft 230 kts
2026-05-08 03:50 40.55691 -111.95398 7412 ft 224 kts 342°
2026-05-08 03:50 40.57178 -111.95998 7166 ft 223 kts 340°
2026-05-08 03:50 40.58612 -111.96641 7050 ft 211 kts 339°
2026-05-08 03:51 40.59955 -111.97243 7035 ft 198 kts 342°
2026-05-08 03:51 40.61300 -111.97599 7029 ft 195 kts 351°
2026-05-08 03:51 40.62648 -111.97810 7029 ft 194 kts 353°
2026-05-08 03:51 40.63996 -111.97978 6923 ft 193 kts 354°
2026-05-08 03:52 40.65332 -111.98135 6728 ft 191 kts 354°
2026-05-08 03:52 40.66629 -111.98285 6480 ft 181 kts 353°
2026-05-08 03:52 40.67819 -111.98422 6274 ft 166 kts 353°
2026-05-08 03:52 40.68940 -111.98552 6029 ft 159 kts 354°
2026-05-08 03:53 40.70035 -111.98680 5792 ft 157 kts 353°
2026-05-08 03:53 40.71119 -111.98806 5567 ft 156 kts 354°
2026-05-08 03:53 40.72202 -111.98932 5338 ft 156 kts 354°
2026-05-08 03:53 40.73285 -111.99055 5125 ft 156 kts 353°
2026-05-08 03:54 40.74367 -111.99163 4872 ft 156 kts 354°
2026-05-08 03:54 40.75447 -111.99306 4678 ft 156 kts 352°
2026-05-08 03:54 40.76527 -111.99439 4474 ft 155 kts 354°
2026-05-08 03:54 40.77601 -111.99559 4279 ft 154 kts 354°
2026-05-08 03:55 40.78574 -111.99678 4233 ft 106 kts 355°
2026-05-08 03:55 40.79027 -111.99725 4235 ft 30 kts 355°
2026-05-08 03:55 40.79114 -111.99639 4232 ft 12 kts 52°
2026-05-08 03:55 40.79146 -111.99583 4230 ft 5 kts 59°
2026-05-08 03:56 40.79157 -111.99549 4232 ft 2 kts 69°
2026-05-08 03:56 40.79161 -111.99533 4232 ft 4 kts 73°
2026-05-08 03:56 40.79171 -111.99419 4233 ft 16 kts 85°
2026-05-08 03:56 40.79182 -111.99263 4232 ft 18 kts 85°
2026-05-08 03:57 40.79193 -111.99092 4232 ft 18 kts 85°
2026-05-08 03:57 40.79202 -111.98948 4233 ft 13 kts 85°
2026-05-08 03:57 40.79210 -111.98820 4232 ft 15 kts 85°
2026-05-08 03:57 40.79219 -111.98677 4232 ft 15 kts 88°
2026-05-08 03:58 40.79141 -111.98621 4232 ft 16 kts 175°
2026-05-08 03:58 40.79031 -111.98633 4231 ft 17 kts 214°
2026-05-08 03:58 40.78961 -111.98665 4231 ft 0 kts 173°